Погода в Лойткирхе

Германия     47°49′38″N   10°01′19″E
темп.,
°C
ветер,
м/с
пор.,
м/с
влажн.,
%
обл.,
%
осадки,
мм/ч
давл.,
гПа
погр.,
м
15 апреля, чт
чт1523:00−2всв2775100 0.0 1028209
02:00−3всв2284100 0.0 102737
05:00−6в219578 0.0 102825
08:00−2всв13795 0.0 1028161
11:00+4св444896 0.1 10251803
14:00+6св4438100 0.3 10242351
17:00+6св5537100 0.1 10232026
20:00+2св38575 0.1 1024292
16 апреля, пт
пт1623:00−3всв28875 0.0 1026161
02:00−3всв310855 0.0 1025268
05:00−5всв25975 0.0 1025118
08:00−2всв28775 0.0 1025301
11:00+5св45475 0.0 10221269
14:00+8св453712 0.0 10201819
17:00+8св563816 0.0 10191706
20:00+3св510695 0.0 1021674
17 апреля, сб
сб1723:00−1всв311915 0.0 1023421
02:00−3всв25976 0.0 1023116
05:00−4всв22988 0.0 102341
08:00−1всв238838 0.0 1023201
11:00+5св456153 0.0 10201124
14:00+7ссв555497 0.0 10181314
17:00+6св455981 0.0 10191134
20:00+4св3771100 0.0 1020465
18 апреля, вс
вс1823:00+2св2791100 0.0 1021288
02:00+1св269799 0.1 1021224
05:00+1св2597100 0.0 1022196
08:00+2св2591100 0.0 1022479
11:00+3св2382100 0.1 1022750
14:00+4ссв248785 0.1 1022509
17:00+5ссв348097 0.3 1021682
20:00+3св118787 0.3 102225
19 апреля, пн
пн1923:00+3всв1295100 0.1 102387
02:00+2в1296100 0.1 1022136
05:00+2ссв1193100 0.1 102224
08:00+2ююв01100100 1.3 1022249
11:00+2в019999 1.1 1021118
14:00+8всв246691 1.1 10181280
17:00+8ссв337570 0.5 1017809
20:00+3св119462 1.2 101812